����������;��������(kWh)
2016-01-25 00:00;93,05
2016-01-25 00:15;89,2
2016-01-25 00:30;87,4
2016-01-25 00:45;89,45
2016-01-25 01:00;89,5
2016-01-25 01:15;87
2016-01-25 01:30;86,35
2016-01-25 01:45;89,25
2016-01-25 02:00;87,85
2016-01-25 02:15;86
2016-01-25 02:30;85,45
2016-01-25 02:45;87,1
2016-01-25 03:00;93,1
2016-01-25 03:15;92,05
2016-01-25 03:30;91,3
2016-01-25 03:45;93,4
2016-01-25 04:00;97,75
2016-01-25 04:15;90,55
2016-01-25 04:30;92,15
2016-01-25 04:45;96,3
2016-01-25 05:00;95,15
2016-01-25 05:15;88,95
2016-01-25 05:30;94,35
2016-01-25 05:45;93,15
2016-01-25 06:00;91,9
2016-01-25 06:15;94,6
2016-01-25 06:30;100
2016-01-25 06:45;98,35
2016-01-25 07:00;95,75
2016-01-25 07:15;97,85
2016-01-25 07:30;105,4
2016-01-25 07:45;115,4
2016-01-25 08:00;164,6
2016-01-25 08:15;166,4
2016-01-25 08:30;192,2
2016-01-25 08:45;223,85
2016-01-25 09:00;299,65
2016-01-25 09:15;276,4
2016-01-25 09:30;265,75
2016-01-25 09:45;273,35
2016-01-25 10:00;285,05
2016-01-25 10:15;300,95
2016-01-25 10:30;307,8
2016-01-25 10:45;312,15
2016-01-25 11:00;359,3
2016-01-25 11:15;352,7
2016-01-25 11:30;366,9
2016-01-25 11:45;348,45
2016-01-25 12:00;320,1
2016-01-25 12:15;329,65
2016-01-25 12:30;326
2016-01-25 12:45;329,8
2016-01-25 13:00;323,65
2016-01-25 13:15;327,4
2016-01-25 13:30;325,15
2016-01-25 13:45;332,7
2016-01-25 14:00;367,2
2016-01-25 14:15;361,65
2016-01-25 14:30;336,5
2016-01-25 14:45;329
2016-01-25 15:00;321,55
2016-01-25 15:15;315,35
2016-01-25 15:30;302,3
2016-01-25 15:45;295,25
2016-01-25 16:00;286,5
2016-01-25 16:15;275,15
2016-01-25 16:30;264,4
2016-01-25 16:45;258,85
2016-01-25 17:00;256,85
2016-01-25 17:15;243,8
2016-01-25 17:30;250,5
2016-01-25 17:45;244,85
2016-01-25 18:00;239,5
2016-01-25 18:15;235,75
2016-01-25 18:30;236,9
2016-01-25 18:45;228,2
2016-01-25 19:00;226,1
2016-01-25 19:15;211,6
2016-01-25 19:30;207,4
2016-01-25 19:45;191,1
2016-01-25 20:00;195,1
2016-01-25 20:15;188,7
2016-01-25 20:30;178,4
2016-01-25 20:45;179,7
2016-01-25 21:00;157,5
2016-01-25 21:15;138
2016-01-25 21:30;137,4
2016-01-25 21:45;131,35
2016-01-25 22:00;128,2
2016-01-25 22:15;124,35
2016-01-25 22:30;120,5
2016-01-25 22:45;115,95
2016-01-25 23:00;112,25
2016-01-25 23:15;113,9
2016-01-25 23:30;106,6
2016-01-25 23:45;104
2016-01-26 00:00;103,75
2016-01-26 00:15;106,25
2016-01-26 00:30;108,3
2016-01-26 00:45;104,75
2016-01-26 01:00;103,6
2016-01-26 01:15;102,55
2016-01-26 01:30;101,7
2016-01-26 01:45;98,8
2016-01-26 02:00;94,55
2016-01-26 02:15;93,95
2016-01-26 02:30;94,1
2016-01-26 02:45;92,6
2016-01-26 03:00;98,7
2016-01-26 03:15;97,65
2016-01-26 03:30;96,5
2016-01-26 03:45;95,25
2016-01-26 04:00;101,2
2016-01-26 04:15;98,1
2016-01-26 04:30;99,8
2016-01-26 04:45;100,6
2016-01-26 05:00;100,2
2016-01-26 05:15;98,35
2016-01-26 05:30;97,85
2016-01-26 05:45;97,05
2016-01-26 06:00;93,65
2016-01-26 06:15;87,25
2016-01-26 06:30;95,4
2016-01-26 06:45;98,1
2016-01-26 07:00;107,35
2016-01-26 07:15;112,35
2016-01-26 07:30;116,65
2016-01-26 07:45;128,7
2016-01-26 08:00;197,3
2016-01-26 08:15;181,8
2016-01-26 08:30;188,95
2016-01-26 08:45;210,1
2016-01-26 09:00;230,95
2016-01-26 09:15;263,35
2016-01-26 09:30;281,85
2016-01-26 09:45;265,7
2016-01-26 10:00;258,7
2016-01-26 10:15;259,65
2016-01-26 10:30;260,25
2016-01-26 10:45;271,4
2016-01-26 11:00;273,6
2016-01-26 11:15;269,75
2016-01-26 11:30;295,8
2016-01-26 11:45;290,3
2016-01-26 12:00;327,05
2016-01-26 12:15;308,25
2016-01-26 12:30;295,8
2016-01-26 12:45;301,25
2016-01-26 13:00;292,5
2016-01-26 13:15;297
2016-01-26 13:30;305,05
2016-01-26 13:45;299,7
2016-01-26 14:00;301,25
2016-01-26 14:15;297,15
2016-01-26 14:30;293,15
2016-01-26 14:45;288,4
2016-01-26 15:00;277,95
2016-01-26 15:15;277,25
2016-01-26 15:30;259,6
2016-01-26 15:45;253,7
2016-01-26 16:00;242,3
2016-01-26 16:15;230,4
2016-01-26 16:30;226,7
2016-01-26 16:45;216,4
2016-01-26 17:00;212,85
2016-01-26 17:15;201,85
2016-01-26 17:30;210,15
2016-01-26 17:45;202,7
2016-01-26 18:00;199,85
2016-01-26 18:15;194,55
2016-01-26 18:30;191,45
2016-01-26 18:45;191,45
2016-01-26 19:00;188,1
2016-01-26 19:15;182,95
2016-01-26 19:30;186
2016-01-26 19:45;168,9
2016-01-26 20:00;157,15
2016-01-26 20:15;154,15
2016-01-26 20:30;150,9
2016-01-26 20:45;159,5
2016-01-26 21:00;156,4
2016-01-26 21:15;141,9
2016-01-26 21:30;140,85
2016-01-26 21:45;121,35
2016-01-26 22:00;124,1
2016-01-26 22:15;111,2
2016-01-26 22:30;112,7
2016-01-26 22:45;110,1
2016-01-26 23:00;108,3
2016-01-26 23:15;107,7
2016-01-26 23:30;110,8
2016-01-26 23:45;106,7
2016-01-27 00:00;110,4
2016-01-27 00:15;100,1
2016-01-27 00:30;99,25
2016-01-27 00:45;95,65
2016-01-27 01:00;98,15
2016-01-27 01:15;97,1
2016-01-27 01:30;99,15
2016-01-27 01:45;98
2016-01-27 02:00;114,7
2016-01-27 02:15;121,1
2016-01-27 02:30;119,35
2016-01-27 02:45;112,65
2016-01-27 03:00;109,7
2016-01-27 03:15;116
2016-01-27 03:30;106,15
2016-01-27 03:45;106,8
2016-01-27 04:00;118,5
2016-01-27 04:15;116,25
2016-01-27 04:30;114,15
2016-01-27 04:45;122,35
2016-01-27 05:00;121,55
2016-01-27 05:15;109,8
2016-01-27 05:30;113,6
2016-01-27 05:45;113,05
2016-01-27 06:00;111,9
2016-01-27 06:15;117,4
2016-01-27 06:30;127,1
2016-01-27 06:45;124,7
2016-01-27 07:00;116,2
2016-01-27 07:15;128,05
2016-01-27 07:30;130,35
2016-01-27 07:45;144,35
2016-01-27 08:00;182,35
2016-01-27 08:15;161,1
2016-01-27 08:30;181,35
2016-01-27 08:45;186,05
2016-01-27 09:00;229,35
2016-01-27 09:15;207,8
2016-01-27 09:30;227,35
2016-01-27 09:45;244,9
2016-01-27 10:00;262
2016-01-27 10:15;266,1
2016-01-27 10:30;276,7
2016-01-27 10:45;322,7
2016-01-27 11:00;348,15
2016-01-27 11:15;318
2016-01-27 11:30;289,85
2016-01-27 11:45;298,35
2016-01-27 12:00;278,3
2016-01-27 12:15;291,4
2016-01-27 12:30;331
2016-01-27 12:45;282
2016-01-27 13:00;295,1
2016-01-27 13:15;289,55
2016-01-27 13:30;286,1
2016-01-27 13:45;288,6
2016-01-27 14:00;296,1
2016-01-27 14:15;290,7
2016-01-27 14:30;261,3
2016-01-27 14:45;267,3
2016-01-27 15:00;252,9
2016-01-27 15:15;241,6
2016-01-27 15:30;242,1
2016-01-27 15:45;224,1
2016-01-27 16:00;219,35
2016-01-27 16:15;207,75
2016-01-27 16:30;198,9
2016-01-27 16:45;192,6
2016-01-27 17:00;191,4
2016-01-27 17:15;197,05
2016-01-27 17:30;204,85
2016-01-27 17:45;206,5
2016-01-27 18:00;203,65
2016-01-27 18:15;198,35
2016-01-27 18:30;205,4
2016-01-27 18:45;207,75
2016-01-27 19:00;213,55
2016-01-27 19:15;212,4
2016-01-27 19:30;208,15
2016-01-27 19:45;201,25
2016-01-27 20:00;189,55
2016-01-27 20:15;190,25
2016-01-27 20:30;186,95
2016-01-27 20:45;174,15
2016-01-27 21:00;165,15
2016-01-27 21:15;160,65
2016-01-27 21:30;157,4
2016-01-27 21:45;140,3
2016-01-27 22:00;124,4
2016-01-27 22:15;120,7
2016-01-27 22:30;121,25
2016-01-27 22:45;115,75
2016-01-27 23:00;113,95
2016-01-27 23:15;120,25
2016-01-27 23:30;112,7
2016-01-27 23:45;106,4
2016-01-28 00:00;108,65
2016-01-28 00:15;105,95
2016-01-28 00:30;103,9
2016-01-28 00:45;99,8
2016-01-28 01:00;102,75
2016-01-28 01:15;100,9
2016-01-28 01:30;100,8
2016-01-28 01:45;105,65
2016-01-28 02:00;98,3
2016-01-28 02:15;94
2016-01-28 02:30;98,2
2016-01-28 02:45;97
2016-01-28 03:00;97,1
2016-01-28 03:15;96,55
2016-01-28 03:30;94,6
2016-01-28 03:45;95,05
2016-01-28 04:00;97,9
2016-01-28 04:15;98,5
2016-01-28 04:30;110,7
2016-01-28 04:45;104,2
2016-01-28 05:00;101
2016-01-28 05:15;98,45
2016-01-28 05:30;104,05
2016-01-28 05:45;96,2
2016-01-28 06:00;102
2016-01-28 06:15;127,45
2016-01-28 06:30;133,25
2016-01-28 06:45;130,7
2016-01-28 07:00;124,95
2016-01-28 07:15;130
2016-01-28 07:30;128,15
2016-01-28 07:45;143,65
2016-01-28 08:00;156,3
2016-01-28 08:15;159,85
2016-01-28 08:30;184,85
2016-01-28 08:45;201,25
2016-01-28 09:00;254,9
2016-01-28 09:15;264,6
2016-01-28 09:30;252,85
2016-01-28 09:45;217,25
2016-01-28 10:00;223,45
2016-01-28 10:15;236,4
2016-01-28 10:30;247,45
2016-01-28 10:45;264,9
2016-01-28 11:00;258,7
2016-01-28 11:15;247,9
2016-01-28 11:30;253,8
2016-01-28 11:45;243,45
2016-01-28 12:00;248,55
2016-01-28 12:15;245,15
2016-01-28 12:30;245,25
2016-01-28 12:45;242,9
2016-01-28 13:00;240,4
2016-01-28 13:15;271,1
2016-01-28 13:30;258,7
2016-01-28 13:45;257,7
2016-01-28 14:00;260,3
2016-01-28 14:15;254,95
2016-01-28 14:30;252,5
2016-01-28 14:45;256,8
2016-01-28 15:00;233,9
2016-01-28 15:15;233,5
2016-01-28 15:30;225,7
2016-01-28 15:45;210,8
2016-01-28 16:00;220,2
2016-01-28 16:15;191,3
2016-01-28 16:30;178,15
2016-01-28 16:45;169,8
2016-01-28 17:00;167,4
2016-01-28 17:15;163,2
2016-01-28 17:30;160,4
2016-01-28 17:45;159,65
2016-01-28 18:00;159,05
2016-01-28 18:15;162,2
2016-01-28 18:30;163,25
2016-01-28 18:45;162,2
2016-01-28 19:00;163,15
2016-01-28 19:15;156,15
2016-01-28 19:30;150,55
2016-01-28 19:45;148,55
2016-01-28 20:00;144,35
2016-01-28 20:15;145,45
2016-01-28 20:30;143,65
2016-01-28 20:45;137,15
2016-01-28 21:00;135,05
2016-01-28 21:15;126,65
2016-01-28 21:30;116,25
2016-01-28 21:45;113,5
2016-01-28 22:00;115,15
2016-01-28 22:15;105,35
2016-01-28 22:30;102,7
2016-01-28 22:45;105,3
2016-01-28 23:00;103,1
2016-01-28 23:15;103,05
2016-01-28 23:30;104,8
2016-01-28 23:45;100,7
2016-01-29 00:00;99,95
2016-01-29 00:15;98,95
2016-01-29 00:30;97,15
2016-01-29 00:45;92,1
2016-01-29 01:00;91,9
2016-01-29 01:15;91,7
2016-01-29 01:30;87,4
2016-01-29 01:45;89,3
2016-01-29 02:00;90,85
2016-01-29 02:15;89,1
2016-01-29 02:30;86,9
2016-01-29 02:45;82,55
2016-01-29 03:00;86,95
2016-01-29 03:15;86,95
2016-01-29 03:30;86,2
2016-01-29 03:45;85,7
2016-01-29 04:00;89,4
2016-01-29 04:15;81,7
2016-01-29 04:30;82,05
2016-01-29 04:45;90,05
2016-01-29 05:00;84,65
2016-01-29 05:15;88,55
2016-01-29 05:30;93,25
2016-01-29 05:45;87,85
2016-01-29 06:00;92,15
2016-01-29 06:15;95,95
2016-01-29 06:30;102,1
2016-01-29 06:45;130,65
2016-01-29 07:00;132,2
2016-01-29 07:15;132
2016-01-29 07:30;130,05
2016-01-29 07:45;135,1
2016-01-29 08:00;149,15
2016-01-29 08:15;156,25
2016-01-29 08:30;165,7
2016-01-29 08:45;178,45
2016-01-29 09:00;200
2016-01-29 09:15;246,85
2016-01-29 09:30;254,4
2016-01-29 09:45;198,3
2016-01-29 10:00;222,55
2016-01-29 10:15;211,7
2016-01-29 10:30;226,2
2016-01-29 10:45;237
2016-01-29 11:00;253,95
2016-01-29 11:15;227,35
2016-01-29 11:30;235,7
2016-01-29 11:45;229,3
2016-01-29 12:00;229
2016-01-29 12:15;256,7
2016-01-29 12:30;243,9
2016-01-29 12:45;258,2
2016-01-29 13:00;248,6
2016-01-29 13:15;241,15
2016-01-29 13:30;237,35
2016-01-29 13:45;239,3
2016-01-29 14:00;238,4
2016-01-29 14:15;261,45
2016-01-29 14:30;260,2
2016-01-29 14:45;223,8
2016-01-29 15:00;228,1
2016-01-29 15:15;209,65
2016-01-29 15:30;222,8
2016-01-29 15:45;196,9
2016-01-29 16:00;211,1
2016-01-29 16:15;196,1
2016-01-29 16:30;193,55
2016-01-29 16:45;186,95
2016-01-29 17:00;189,15
2016-01-29 17:15;189,75
2016-01-29 17:30;182,35
2016-01-29 17:45;199,9
2016-01-29 18:00;184,8
2016-01-29 18:15;182,25
2016-01-29 18:30;179,9
2016-01-29 18:45;168,8
2016-01-29 19:00;184,85
2016-01-29 19:15;157,3
2016-01-29 19:30;156,1
2016-01-29 19:45;158,25
2016-01-29 20:00;138,85
2016-01-29 20:15;142,3
2016-01-29 20:30;134,55
2016-01-29 20:45;130,45
2016-01-29 21:00;134,9
2016-01-29 21:15;115,4
2016-01-29 21:30;119,85
2016-01-29 21:45;105,3
2016-01-29 22:00;102,3
2016-01-29 22:15;117,4
2016-01-29 22:30;103,65
2016-01-29 22:45;110,6
2016-01-29 23:00;104,4
2016-01-29 23:15;101,45
2016-01-29 23:30;116
2016-01-29 23:45;97,65
2016-01-30 00:00;102,6
2016-01-30 00:15;107,35
2016-01-30 00:30;99,75
2016-01-30 00:45;114,55
2016-01-30 01:00;101,25
2016-01-30 01:15;91,15
2016-01-30 01:30;101,05
2016-01-30 01:45;86,65
2016-01-30 02:00;94,2
2016-01-30 02:15;93,85
2016-01-30 02:30;85,2
2016-01-30 02:45;98,15
2016-01-30 03:00;85,95
2016-01-30 03:15;86,4
2016-01-30 03:30;101,2
2016-01-30 03:45;86,3
2016-01-30 04:00;101,1
2016-01-30 04:15;88,2
2016-01-30 04:30;87,2
2016-01-30 04:45;103,65
2016-01-30 05:00;86,8
2016-01-30 05:15;83,05
2016-01-30 05:30;97,85
2016-01-30 05:45;80,6
2016-01-30 06:00;89,2
2016-01-30 06:15;92,45
2016-01-30 06:30;84,95
2016-01-30 06:45;99,15
2016-01-30 07:00;86,3
2016-01-30 07:15;85,6
2016-01-30 07:30;99,9
2016-01-30 07:45;85,6
2016-01-30 08:00;87,05
2016-01-30 08:15;101,85
2016-01-30 08:30;83,45
2016-01-30 08:45;85,05
2016-01-30 09:00;92,5
2016-01-30 09:15;81,3
2016-01-30 09:30;87
2016-01-30 09:45;88
2016-01-30 10:00;79,35
2016-01-30 10:15;91,9
2016-01-30 10:30;88,5
2016-01-30 10:45;93,05
2016-01-30 11:00;104,75
2016-01-30 11:15;81,15
2016-01-30 11:30;85,7
2016-01-30 11:45;93,65
2016-01-30 12:00;91,35
2016-01-30 12:15;93,55
2016-01-30 12:30;93,75
2016-01-30 12:45;96,05
2016-01-30 13:00;98,75
2016-01-30 13:15;100,3
2016-01-30 13:30;100,2
2016-01-30 13:45;101
2016-01-30 14:00;97
2016-01-30 14:15;92,45
2016-01-30 14:30;92,25
2016-01-30 14:45;98,15
2016-01-30 15:00;99,55
2016-01-30 15:15;95,6
2016-01-30 15:30;93,85
2016-01-30 15:45;94,05
2016-01-30 16:00;95,15
2016-01-30 16:15;93,35
2016-01-30 16:30;94,4
2016-01-30 16:45;97
2016-01-30 17:00;95,2
2016-01-30 17:15;94,95
2016-01-30 17:30;90,8
2016-01-30 17:45;91,9
2016-01-30 18:00;91,65
2016-01-30 18:15;103
2016-01-30 18:30;102,35
2016-01-30 18:45;106,3
2016-01-30 19:00;106,75
2016-01-30 19:15;109,5
2016-01-30 19:30;105
2016-01-30 19:45;108,1
2016-01-30 20:00;107,4
2016-01-30 20:15;107,15
2016-01-30 20:30;108,15
2016-01-30 20:45;111,85
2016-01-30 21:00;110,25
2016-01-30 21:15;109,4
2016-01-30 21:30;101,45
2016-01-30 21:45;100,6
2016-01-30 22:00;95,85
2016-01-30 22:15;95,25
2016-01-30 22:30;92,9
2016-01-30 22:45;87,55
2016-01-30 23:00;85,9
2016-01-30 23:15;86,1
2016-01-30 23:30;83,45
2016-01-30 23:45;81,3
2016-01-31 00:00;80,65
2016-01-31 00:15;80,2
2016-01-31 00:30;80,15
2016-01-31 00:45;80,9
2016-01-31 01:00;82,9
2016-01-31 01:15;81,85
2016-01-31 01:30;81,75
2016-01-31 01:45;82,55
2016-01-31 02:00;82,6
2016-01-31 02:15;82,1
2016-01-31 02:30;79,8
2016-01-31 02:45;75,35
2016-01-31 03:00;75,35
2016-01-31 03:15;76,35
2016-01-31 03:30;76,35
2016-01-31 03:45;75,6
2016-01-31 04:00;79,45
2016-01-31 04:15;78,15
2016-01-31 04:30;78,2
2016-01-31 04:45;78,55
2016-01-31 05:00;79,55
2016-01-31 05:15;76,55
2016-01-31 05:30;80,95
2016-01-31 05:45;74,8
2016-01-31 06:00;80,9
2016-01-31 06:15;81,9
2016-01-31 06:30;83,2
2016-01-31 06:45;84,45
2016-01-31 07:00;83,8
2016-01-31 07:15;85,05
2016-01-31 07:30;82,75
2016-01-31 07:45;80,35
2016-01-31 08:00;79,7
2016-01-31 08:15;77,7
2016-01-31 08:30;75,3
2016-01-31 08:45;72,1
2016-01-31 09:00;71,7
2016-01-31 09:15;73
2016-01-31 09:30;72,7
2016-01-31 09:45;73,4
2016-01-31 10:00;79,75
2016-01-31 10:15;84,45
2016-01-31 10:30;83,6
2016-01-31 10:45;86,05
2016-01-31 11:00;90,65
2016-01-31 11:15;76,25
2016-01-31 11:30;74,4
2016-01-31 11:45;70,35
2016-01-31 12:00;72,4
2016-01-31 12:15;78,35
2016-01-31 12:30;76,6
2016-01-31 12:45;73,65
2016-01-31 13:00;72,7
2016-01-31 13:15;74,95
2016-01-31 13:30;78,3
2016-01-31 13:45;76,95
2016-01-31 14:00;75,45
2016-01-31 14:15;77,65
2016-01-31 14:30;76,7
2016-01-31 14:45;76,7
2016-01-31 15:00;76,5
2016-01-31 15:15;78,95
2016-01-31 15:30;79,85
2016-01-31 15:45;76,3
2016-01-31 16:00;76,5
2016-01-31 16:15;76,95
2016-01-31 16:30;81,7
2016-01-31 16:45;87,25
2016-01-31 17:00;85,55
2016-01-31 17:15;82,8
2016-01-31 17:30;86,75
2016-01-31 17:45;91,6
2016-01-31 18:00;93,95
2016-01-31 18:15;99,05
2016-01-31 18:30;101,2
2016-01-31 18:45;105,3
2016-01-31 19:00;99,6
2016-01-31 19:15;96,75
2016-01-31 19:30;97,25
2016-01-31 19:45;96,1
2016-01-31 20:00;101,35
2016-01-31 20:15;103,05
2016-01-31 20:30;100,45
2016-01-31 20:45;100,75
2016-01-31 21:00;100
2016-01-31 21:15;101,95
2016-01-31 21:30;101,25
2016-01-31 21:45;99,75
2016-01-31 22:00;95,3
2016-01-31 22:15;91,05
2016-01-31 22:30;91,95
2016-01-31 22:45;92,4
2016-01-31 23:00;94,05
2016-01-31 23:15;84,5
2016-01-31 23:30;83,7
2016-01-31 23:45;82,65

